Location: Newark
(43.5831°N, 21.3381°E)
Time: 07:46:04
(UTC+00:00)

Starlink Launch 2 trailer - Visible Passes

Search period start: 16 December 2019 00:00
Search period end: 26 December 2019 00:00
Orbit: 279 x 281 km, 53.0° (Epoch: 13 November)

Date Brightness Start Highest point End Pass type
(mag) Time Alt. Az. Time Alt. Az. Time Alt. Az.
20 Dec 5.8 17:16:01 10° SW 17:16:03 10° SW 17:16:03 10° SW visible
21 Dec 5.7 17:17:51 10° WSW 17:18:17 14° WSW 17:18:17 14° WSW visible
22 Dec 4.4 15:47:15 10° S 15:48:50 16° SE 15:50:19 11° E visible
22 Dec 5.7 17:19:56 10° WSW 17:20:27 14° W 17:20:27 14° W visible
23 Dec 3.4 15:48:25 10° SSW 15:50:38 30° SE 15:52:24 14° ENE visible
23 Dec 5.8 17:22:13 10° W 17:22:32 12° WNW 17:22:32 12° WNW visible
24 Dec 2.3 15:50:04 10° SW 15:52:31 67° SE 15:54:26 15° ENE visible
25 Dec 2.6 15:52:01 10° WSW 15:54:27 56° NNW 15:56:24 14° NE visible
